TDR402 LIRN-LDDU

Flight info

Callsign TDR402
Flight time 0h 36m
Altitude 32000
Route GALTI DCT LUNAR DCT BUMOK DCT TOPNO DCT AIOSA
Aircraft A320/M-SDE3FGHIRWY/LB1

Departure

Time 2026-04-27 10:55
Airport Naples International Airport (LIRN)

Arrival

Time 2026-04-27 11:31
Airport Dubrovnik Ruđer Bošković Airport (LDDU)
Time Latitude Longitude Altitude Speed Heading
2026-04-27 10:18 40.87885 14.28227 295 ft 0 kts 187°
2026-04-27 10:47 40.87891 14.28228 292 ft 4 kts 187°
2026-04-27 10:47 40.87918 14.28233 294 ft 4 kts 187°
2026-04-27 10:47 40.87942 14.28239 296 ft 4 kts 219°
2026-04-27 10:47 40.87952 14.28266 296 ft 4 kts 274°
2026-04-27 10:48 40.87949 14.28293 293 ft 4 kts 277°
2026-04-27 10:48 40.87948 14.28305 291 ft 1 kts 277°
2026-04-27 10:50 40.87952 14.28263 296 ft 10 kts 277°
2026-04-27 10:50 40.87960 14.28182 291 ft 8 kts 279°
2026-04-27 10:50 40.88011 14.28137 291 ft 13 kts 20°
2026-04-27 10:51 40.88067 14.28270 288 ft 20 kts 90°
2026-04-27 10:51 40.88049 14.28464 286 ft 23 kts 98°
2026-04-27 10:51 40.88073 14.28654 282 ft 22 kts 53°
2026-04-27 10:51 40.88173 14.28828 278 ft 25 kts 52°
2026-04-27 10:52 40.88286 14.29024 273 ft 28 kts 52°
2026-04-27 10:52 40.88412 14.29240 268 ft 31 kts 53°
2026-04-27 10:52 40.88535 14.29452 262 ft 26 kts 51°
2026-04-27 10:52 40.88652 14.29655 256 ft 29 kts 52°
2026-04-27 10:53 40.88776 14.29870 249 ft 30 kts 53°
2026-04-27 10:53 40.88982 14.30226 237 ft 28 kts 53°
2026-04-27 10:53 40.89126 14.30451 227 ft 19 kts 25°
2026-04-27 10:54 40.89200 14.30419 226 ft 16 kts 316°
2026-04-27 10:54 40.89176 14.30287 230 ft 22 kts 239°
2026-04-27 10:54 40.88960 14.29833 246 ft 93 kts 238°
2026-04-27 10:54 40.88508 14.28878 275 ft 150 kts 238°
2026-04-27 10:55 40.87943 14.27678 816 ft 151 kts 233°
2026-04-27 10:55 40.86838 14.26601 1616 ft 155 kts 190°
2026-04-27 10:55 40.86127 14.26596 1993 ft 155 kts 172°
2026-04-27 10:55 40.85060 14.26782 2538 ft 155 kts 174°
2026-04-27 10:56 40.83989 14.26925 3093 ft 154 kts 174°
2026-04-27 10:56 40.82916 14.27063 3580 ft 158 kts 174°
2026-04-27 10:56 40.81745 14.27231 3820 ft 180 kts 168°
2026-04-27 10:56 40.80582 14.28023 4051 ft 202 kts 135°
2026-04-27 10:57 40.79844 14.29725 4306 ft 229 kts 111°
2026-04-27 10:57 40.79294 14.31817 4672 ft 253 kts 110°
2026-04-27 10:57 40.78711 14.34080 5303 ft 265 kts 110°
2026-04-27 10:57 40.78124 14.36371 6132 ft 269 kts 110°
2026-04-27 10:58 40.77521 14.38728 6973 ft 273 kts 110°
2026-04-27 10:58 40.77044 14.41170 7769 ft 279 kts 98°
2026-04-27 10:58 40.76842 14.43743 8562 ft 284 kts 97°
2026-04-27 10:58 40.76646 14.46359 9361 ft 289 kts 96°
2026-04-27 10:59 40.76450 14.49025 10125 ft 295 kts 96°
2026-04-27 10:59 40.76310 14.51776 10581 ft 311 kts 86°
2026-04-27 10:59 40.76869 14.54614 10793 ft 333 kts 62°
2026-04-27 11:00 40.79395 14.60100 11628 ft 360 kts 57°
2026-04-27 11:00 40.80739 14.62906 12331 ft 364 kts 57°
2026-04-27 11:00 40.82099 14.65738 13011 ft 368 kts 57°
2026-04-27 11:00 40.83475 14.68610 13733 ft 371 kts 57°
2026-04-27 11:01 40.84852 14.71509 14385 ft 375 kts 57°
2026-04-27 11:01 40.86236 14.74445 14989 ft 378 kts 57°
2026-04-27 11:01 40.87625 14.77409 15615 ft 381 kts 57°
2026-04-27 11:01 40.89023 14.80401 16233 ft 384 kts 57°
2026-04-27 11:02 40.90399 14.83442 16841 ft 387 kts 58°
2026-04-27 11:02 40.91761 14.86534 17448 ft 391 kts 58°
2026-04-27 11:02 40.93127 14.89662 18045 ft 395 kts 58°
2026-04-27 11:02 40.94504 14.92822 18621 ft 398 kts 58°
2026-04-27 11:03 40.95892 14.96006 19151 ft 401 kts 58°
2026-04-27 11:03 40.97294 14.99213 19680 ft 404 kts 58°
2026-04-27 11:03 40.98712 15.02442 20216 ft 407 kts 57°
2026-04-27 11:03 41.00144 15.05692 20745 ft 410 kts 57°
2026-04-27 11:04 41.01585 15.08967 21261 ft 413 kts 58°
2026-04-27 11:04 41.03034 15.12269 21759 ft 416 kts 58°
2026-04-27 11:04 41.04494 15.15604 22248 ft 419 kts 58°
2026-04-27 11:04 41.05959 15.18956 22718 ft 422 kts 58°
2026-04-27 11:05 41.07436 15.22338 23177 ft 425 kts 58°
2026-04-27 11:05 41.08921 15.25741 23629 ft 428 kts 58°
2026-04-27 11:05 41.10414 15.29167 24017 ft 431 kts 58°
2026-04-27 11:05 41.11919 15.32620 24384 ft 433 kts 58°
2026-04-27 11:06 41.13428 15.36085 24750 ft 435 kts 58°
2026-04-27 11:06 41.14944 15.39570 25097 ft 437 kts 58°
2026-04-27 11:06 41.16465 15.43076 25444 ft 439 kts 58°
2026-04-27 11:06 41.17995 15.46605 25769 ft 442 kts 58°
2026-04-27 11:07 41.19533 15.50147 26094 ft 444 kts 58°
2026-04-27 11:07 41.21081 15.53712 26422 ft 447 kts 58°
2026-04-27 11:07 41.22632 15.57298 26745 ft 449 kts 58°
2026-04-27 11:07 41.24189 15.60907 27068 ft 451 kts 58°
2026-04-27 11:08 41.25751 15.64536 27385 ft 453 kts 58°
2026-04-27 11:08 41.27319 15.68184 27693 ft 455 kts 58°
2026-04-27 11:08 41.28892 15.71846 27990 ft 457 kts 58°
2026-04-27 11:08 41.30471 15.75529 28277 ft 460 kts 58°
2026-04-27 11:09 41.32056 15.79230 28545 ft 462 kts 58°
2026-04-27 11:09 41.33650 15.82955 28783 ft 464 kts 58°
2026-04-27 11:09 41.35250 15.86697 29057 ft 466 kts 58°
2026-04-27 11:09 41.36853 15.90458 29300 ft 468 kts 58°
2026-04-27 11:10 41.38460 15.94236 29548 ft 470 kts 58°
2026-04-27 11:10 41.40076 15.98031 29785 ft 472 kts 58°
2026-04-27 11:10 41.41693 16.01839 30093 ft 472 kts 58°
2026-04-27 11:10 41.43303 16.05640 30404 ft 471 kts 58°
2026-04-27 11:11 41.44911 16.09436 30687 ft 470 kts 58°
2026-04-27 11:11 41.46520 16.13235 30963 ft 470 kts 58°
2026-04-27 11:11 41.48126 16.17030 31230 ft 470 kts 58°
2026-04-27 11:11 41.49731 16.20828 31466 ft 471 kts 58°
2026-04-27 11:12 41.51334 16.24635 31736 ft 470 kts 58°
2026-04-27 11:12 41.52934 16.28443 32007 ft 470 kts 58°
2026-04-27 11:12 41.54533 16.32248 32129 ft 470 kts 58°
2026-04-27 11:12 41.56129 16.36048 32158 ft 469 kts 58°
2026-04-27 11:13 41.59308 16.43630 32151 ft 467 kts 58°
2026-04-27 11:13 41.62479 16.51204 32153 ft 467 kts 58°
2026-04-27 11:14 41.65644 16.58791 32146 ft 467 kts 58°
2026-04-27 11:14 41.68786 16.66348 31658 ft 468 kts 58°
2026-04-27 11:15 41.70366 16.70161 31144 ft 468 kts 58°
2026-04-27 11:15 41.71944 16.73970 30654 ft 468 kts 58°
2026-04-27 11:15 41.73524 16.77785 30161 ft 469 kts 58°
2026-04-27 11:15 41.75108 16.81607 29594 ft 469 kts 58°
2026-04-27 11:16 41.76690 16.85427 28965 ft 468 kts 59°
2026-04-27 11:16 41.78259 16.89227 28312 ft 464 kts 59°
2026-04-27 11:16 41.79811 16.92998 27607 ft 460 kts 59°
2026-04-27 11:16 41.81346 16.96739 26907 ft 456 kts 59°
2026-04-27 11:17 41.82865 17.00447 26227 ft 452 kts 59°
2026-04-27 11:17 41.84373 17.04128 25563 ft 448 kts 59°
2026-04-27 11:17 41.85869 17.07781 24918 ft 445 kts 59°
2026-04-27 11:17 41.87353 17.11401 24280 ft 441 kts 59°
2026-04-27 11:18 41.88825 17.14994 23641 ft 438 kts 59°
2026-04-27 11:18 41.90286 17.18563 22911 ft 435 kts 59°
2026-04-27 11:18 41.91736 17.22109 22197 ft 432 kts 59°
2026-04-27 11:18 41.93334 17.25504 21502 ft 428 kts 51°
2026-04-27 11:19 41.95225 17.28565 20819 ft 425 kts 48°
2026-04-27 11:19 41.97146 17.31567 20150 ft 423 kts 48°
2026-04-27 11:19 41.99056 17.34557 19496 ft 421 kts 48°
2026-04-27 11:19 42.00953 17.37535 18856 ft 419 kts 49°
2026-04-27 11:20 42.02842 17.40506 18193 ft 417 kts 49°
2026-04-27 11:20 42.04721 17.43465 17473 ft 415 kts 49°
2026-04-27 11:20 42.06591 17.46410 16768 ft 413 kts 49°
2026-04-27 11:20 42.08455 17.49345 16074 ft 415 kts 49°
2026-04-27 11:21 42.10349 17.52328 15325 ft 420 kts 49°
2026-04-27 11:21 42.12244 17.55317 14597 ft 419 kts 49°
2026-04-27 11:21 42.14129 17.58296 13854 ft 417 kts 49°
2026-04-27 11:21 42.16000 17.61259 13081 ft 414 kts 49°
2026-04-27 11:22 42.17847 17.64188 12568 ft 406 kts 49°
2026-04-27 11:22 42.19659 17.67067 11931 ft 400 kts 50°
2026-04-27 11:22 42.21448 17.69912 11275 ft 395 kts 50°
2026-04-27 11:22 42.23216 17.72725 10606 ft 391 kts 50°
2026-04-27 11:23 42.24969 17.75511 9927 ft 387 kts 49°
2026-04-27 11:23 42.26701 17.78260 9199 ft 382 kts 49°
2026-04-27 11:23 42.28415 17.80982 8451 ft 379 kts 49°
2026-04-27 11:23 42.30089 17.83645 7712 ft 375 kts 49°
2026-04-27 11:24 42.31775 17.86334 7194 ft 375 kts 49°
2026-04-27 11:24 42.33482 17.89057 6699 ft 374 kts 50°
2026-04-27 11:24 42.34943 17.91941 6199 ft 372 kts 63°
2026-04-27 11:24 42.36082 17.95070 5625 ft 370 kts 64°
2026-04-27 11:25 42.37184 17.98124 5012 ft 362 kts 64°
2026-04-27 11:25 42.38291 18.01193 4374 ft 354 kts 64°
2026-04-27 11:25 42.39346 18.04120 3764 ft 348 kts 64°
2026-04-27 11:25 42.40398 18.07040 3148 ft 342 kts 64°
2026-04-27 11:26 42.41416 18.09879 2872 ft 328 kts 64°
2026-04-27 11:26 42.42386 18.12592 2623 ft 314 kts 64°
2026-04-27 11:26 42.43317 18.15198 2372 ft 301 kts 64°
2026-04-27 11:26 42.44209 18.17701 2132 ft 289 kts 64°
2026-04-27 11:27 42.45062 18.20087 1997 ft 273 kts 64°
2026-04-27 11:27 42.45845 18.22273 2000 ft 243 kts 64°
2026-04-27 11:27 42.46540 18.24215 2004 ft 217 kts 64°
2026-04-27 11:27 42.47160 18.25952 2039 ft 192 kts 64°
2026-04-27 11:28 42.47705 18.27481 1995 ft 170 kts 64°
2026-04-27 11:28 42.48208 18.28865 1930 ft 159 kts 63°
2026-04-27 11:28 42.48697 18.30161 1983 ft 153 kts 60°
2026-04-27 11:28 42.49399 18.31243 1992 ft 155 kts 37°
2026-04-27 11:29 42.50354 18.31927 1970 ft 158 kts 17°
2026-04-27 11:29 42.51412 18.32285 1798 ft 153 kts 11°
2026-04-27 11:29 42.52458 18.32515 1575 ft 153 kts
2026-04-27 11:29 42.53475 18.32266 1344 ft 148 kts 334°
2026-04-27 11:30 42.54293 18.31430 1139 ft 147 kts 307°
2026-04-27 11:30 42.54780 18.30253 914 ft 141 kts 297°
2026-04-27 11:30 42.55236 18.29095 711 ft 139 kts 300°
2026-04-27 11:30 42.55694 18.27944 539 ft 136 kts 298°
2026-04-27 11:31 42.56083 18.26962 534 ft 96 kts 298°
2026-04-27 11:31 42.56302 18.26405 532 ft 26 kts 298°
2026-04-27 11:31 42.56349 18.26236 534 ft 14 kts 253°
2026-04-27 11:31 42.56289 18.26212 534 ft 9 kts 160°
2026-04-27 11:32 42.56235 18.26244 534 ft 8 kts 152°
2026-04-27 11:32 42.56190 18.26276 534 ft 7 kts 152°
2026-04-27 11:32 42.56156 18.26308 534 ft 5 kts 131°
2026-04-27 11:32 42.56126 18.26329 534 ft 7 kts 192°
2026-04-27 11:33 42.56093 18.26306 534 ft 2 kts 209°
2026-04-27 11:33 42.56089 18.26303 534 ft 0 kts 209°